STARLINK-33862, 63709

Orbit data source: Space-Track

STARLINK-33862, 63709 is a payload satellite owned by SpaceX/Seattle (US) in LEO that was launched on Mon, 28 Apr 2025 UTC via an FALCON 9 launch vehicle from the Air Force Western Test Range (AFWTR). Payload-class satellites include a variety of spacecraft equipped with specific instruments for various scientific and technological missions. These include communications satellites like Starlink; space stations such as the ISS; scientific satellites like the Hubble; Earth observation satellites from companies like Planet Labs, Umbra, and HawkEye 360; GPS; miniature CubeSats for education and research; and military/defense satellites.

Loading next visibility...
Identifier
63709, 2025-087N
Orbit
LEO
Country
Flag of USUS
Related business
Manufacturer
SpaceX/Seattle
Mission
Operational Commercial Communications
Bus & Motor
STARLINK V2MO, Unknown motor
Mass
575 kg wet, ~530 kg dry
Launch date (UTC)
2025-04-28 (8 months ago)
Launch vehicle
FALCON 9
Launch site
Air Force Western Test Range (AFWTR)
Object type
Payload
Rocket body
Debris
Shape & HBR
Box + 2 Pan, 17.7 m
Radar Cross Section
36.964 m², Large (>1 m²)

Expand to show TLE details & history
Last TLE update: 16 hours ago

TLE from 16 hours ago
0 STARLINK-33862
1 63709U 25087N   25348.93474643  .00022360  00000-0  76483-3 0  9993
2 63709  53.1603 253.2079 0001400  95.0396 265.0764 15.30198734 36224
Epoch: 2025-12-14T22:26Z
TLE epoch observation values (Epoch: 2025-12-14T22:26:02.091Z)
Latitude
-0.00007°
Longitude
-167.1414°
Altitude
476.201 km
Speed
7.629 km/s
True Right ascension
16h 52m 49s
True Declination
0° 00' 00"
Sunlit
Object was in daylight at epoch
Visualization orbit readout
Latitude
Unknown
Longitude
Unknown
Altitude
Unknown
Speed
Unknown
Apparent Right ascension
Unknown
Apparent Declination
Unknown
Sunlit
N/A
Visualization observer readout
Local Sidereal Time
13:20:31
Azimuth
Unknown
Elevation
Unknown
Doppler factor
Unknown
Orbital elements
Apogee altitude
476.435 km
Perigee altitude
474.516 km
Semi-major axis
6,853.612 km
Eccentricity
0.00014
Inclination
53.1603°
RAAN
253.2079°
Arg. of periapsis
95.0396°
True anomaly
265.06042°
Mean anomaly
265.0764°
Eccentric anomaly
265.06841°
Mean motion
3.82529 °/min
Orbital period
94.11 mins
BSTAR
0.00076483
Loading maneuver chart data...
Computing Atmospheric mass density...
Loading historical data...
Loading historical data...
Loading historical data...
Loading historical data...
Loading historical data...
Loading historical data...
Loading historical data...

Documentation

Showing up to 5 results
|